User: anonymous   Login
Location: Unspecified
(0.0000°N, 0.0000°E)
Time: 09:42:14
(UTC+00:00)
Language:

METEOR-M - Orbit

View from above orbital plane
View from above orbital plane
View from above satellite
View from above satellite

Ground track
Ground track

The orbit data is extracted from the following two-line orbital elements,

1 35865U 09049A   19288.00342603  .00000015  00000-0  25507-4 0  9994
2 35865  98.4198 280.8195 0002377 161.5489 198.5776 14.22210631522895
Epoch (UTC): 15 October 2019 00:04:56
Eccentricity: 0.0002377
inclination: 98.4198°
perigee height: 816 km
apogee height: 819 km
right ascension of ascending node: 280.8195°
argument of perigee: 161.5489°
revolutions per day: 14.22210631
mean anomaly at epoch: 198.5776°
orbit number at epoch: 52289

The dashed part of the orbit path shows where the satellite is in the earth's shadow,  

DLR